#timestamp,LO_Frequency,Hit,StdDev 
1664924415.2,286046998.7,N
1664924435.1,286046997.1,N
1664924436.0,286046997.1,N
1664924455.8,286046997.8,N
1664924475.7,286046999.3,N
1664924495.5,286046998.1,N
1664924515.3,286047001.1,N
1664924535.2,286047000.5,N
1664924555.9,286047002.3,N
1664924575.7,286047000.1,N
1664924595.6,286046999.7,N
1664924615.4,286047002.7,N
1664924635.2,286047002.7,N
1664924655.1,286047002.6,N
1664924656.0,286047002.6,N
1664924675.8,286046999.7,N
1664924695.7,286047002.1,N
1664924715.5,286047001.0,N
1664924735.3,286046999.7,N
1664924755.2,286047000.8,N
1664924775.0,286046998.8,N
1664924775.9,286046998.8,N
1664924795.8,286046998.3,N
1664924815.6,286046998.4,N
1664924835.4,286047000.1,N
1664924855.3,286047002.6,N
1664924875.1,286046998.2,N
1664924895.8,286046998.1,N
1664924915.7,286046998.6,N
1664924935.5,286046998.3,N
1664924955.4,286047000.7,N
1664924975.2,286047001.1,N
1664924995.0,286047000.9,N
1664924995.9,286047000.9,N
1664925015.8,286047000.1,N
1664925035.6,286046999.7,N
1664925055.5,286047002.0,N
1664925075.3,286047001.5,N
1664925095.1,286047001.7,N
1664925115.9,286047002.8,N
1664925135.7,286047000.0,N
1664925155.6,286047000.1,N
1664925175.4,286047000.0,N
1664925195.2,286047000.5,N
1664925215.1,286047001.0,N
1664925216.0,286047001.0,N
1664925235.8,286047001.0,N
1664925255.6,286046998.1,N
1664925275.5,286047001.1,N
1664925295.3,286047000.9,N
1664925315.2,286047000.6,N
1664925335.9,286046999.7,N
1664925355.7,286047002.0,N
1664925375.6,286047002.7,N
1664925395.4,286047002.3,N
1664925415.2,286047001.9,N
1664925435.1,286047003.8,N
1664925436.0,286047003.8,N
1664925455.8,286047003.7,N
1664925475.7,286047002.9,N
1664925495.5,286047001.5,N
1664925515.3,286047001.6,N
1664925535.2,286047000.5,N
1664925555.0,286046998.8,N
1664925555.9,286046998.8,N
1664925575.8,286046999.6,N
1664925595.6,286046998.3,N
1664925615.4,286046998.5,N
1664925635.3,286047000.5,N
1664925655.1,286047000.3,N
1664925675.8,286047000.2,N
1664925695.7,286047000.5,N
1664925715.5,286046999.8,N
1664925735.4,286047002.7,N
1664925755.2,286047002.5,N
1664925775.0,286047002.0,N
1664925775.9,286047002.0,N
1664925795.8,286047001.7,N
1664925815.6,286047002.1,N
1664925835.5,286047000.5,N
1664925855.3,286046998.1,N
1664925875.1,286047000.4,N
1664925895.9,286047000.3,N
1664925915.7,286047002.7,N
1664925935.6,286047002.4,N
1664925955.4,286047004.2,N
1664925975.2,286047001.6,N
1664925995.1,286047002.8,N
1664925996.0,286047002.8,N
1664926015.8,286047000.5,N
1664926035.6,286047001.6,N
1664926055.5,286047002.5,N
1664926075.3,286047001.3,N
1664926095.2,286047003.0,N
1664926115.9,286047001.4,N
1664926135.7,286047001.3,N
1664926155.6,286047002.7,N
1664926175.4,286047002.4,N
1664926195.2,286046998.2,N
1664926215.1,286046998.7,N
1664926216.0,286046998.7,N
1664926235.8,286047001.1,N
1664926255.7,286046998.5,N
1664926275.5,286046998.9,N
1664926295.3,286046999.2,N
1664926315.2,286046998.4,N
1664926335.0,286046996.6,N
1664926335.9,286046996.6,N
1664926355.8,286047000.6,N
1664926375.6,286047000.1,N
1664926395.4,286047002.8,N
1664926415.3,286047002.6,N
1664926435.1,286047004.0,N
1664926455.8,286047004.0,N
1664926475.7,286047004.2,N
1664926495.5,286047004.4,N
1664926515.4,286047000.6,N
1664926535.2,286047000.6,N
1664926555.0,286047002.7,N
1664926555.9,286047002.7,N
1664926575.8,286047002.0,N
1664926595.6,286047001.6,N
1664926615.4,286047002.5,N
1664926635.3,286047002.3,N
1664926655.1,286047001.7,N
1664926675.9,286047000.9,N
1664926695.7,286046999.9,N
1664926715.5,286047002.0,N
1664926735.4,286047002.2,N
1664926755.2,286047000.9,N
1664926775.1,286047002.5,N
1664926776.0,286047002.5,N
1664926795.8,286047001.7,N
1664926815.6,286047001.5,N
1664926835.5,286047002.2,N
1664926855.3,286047002.6,N
1664926875.1,286047001.1,N
1664926895.9,286046999.8,N
1664926915.7,286047002.1,N
1664926935.6,286047004.0,Y
1664926955.4,286047001.0,P
1664926975.2,286046998.8,N
1664926995.1,286046998.4,N
1664926996.0,286046998.4,N
1664927015.8,286047000.4,N
1664927035.6,286047000.5,N
1664927055.5,286047001.0,N
1664927075.3,286047000.0,N
1664927095.2,286047000.8,N
1664927115.9,286047000.3,N
1664927135.7,286047000.5,N
1664927155.6,286047002.8,N
1664927175.4,286047002.6,N
1664927195.2,286047001.5,N
1664927215.1,286047002.3,N
1664927216.0,286047002.3,N
1664927235.8,286047002.8,N
1664927255.7,286047002.7,N
1664927275.5,286047002.5,N
1664927295.3,286047002.6,N
1664927315.2,286047000.4,N
1664927335.0,286047000.0,N
1664927335.9,286047000.0,N
1664927355.7,286047001.1,N
1664927375.6,286047000.4,N
1664927395.4,286047001.0,N
1664927415.3,286047000.3,N
1664927435.1,286047000.8,N
1664927436.0,286047000.8,N
1664927455.8,286046998.8,N
1664927475.7,286047000.6,N
1664927495.5,286046998.6,N
1664927515.3,286046998.4,N
1664927535.2,286047000.7,N
1664927555.0,286047000.6,N
1664927555.9,286047000.6,N
1664927575.8,286047000.6,N
1664927595.6,286047000.6,N
1664927615.5,286047004.4,Y
1664927635.3,286047002.8,P
1664927655.1,286047002.4,N
1664927675.9,286047004.4,P
1664927695.7,286047004.0,Y
1664927715.5,286046996.8,P
1664927735.4,286046997.8,N
1664927755.2,286046997.2,N
1664927775.1,286046997.3,N
1664927776.0,286046997.3,N
1664927795.8,286046997.8,N
1664927815.6,286046997.5,N
1664927835.5,286046994.6,Y
1664927855.3,286046993.4,P
1664927875.1,286046993.3,N
1664927895.9,286046997.9,N
1664927915.7,286046996.8,N
1664927935.6,286046996.8,N
1664927955.4,286046998.8,N
1664927975.3,286046998.4,N
1664927995.1,286046998.6,N
1664927996.0,286046998.6,N
